| time (UTC) | temp F | wind direction | speed knots | gust knots | rain 1hr in | rain 24hr in | rain mn in | humidity % | barometer mb |
| 20260505021527 | 62 | 134 | 0.9 | 4.3 | 0.00 | 0.00 | 0.00 | 53 | 1014.6 |
| 20260505020029 | 61 | 150 | 0.0 | 0.0 | 0.00 | 0.00 | 0.00 | 53 | 1014.5 |
| 20260505013015 | 64 | 134 | 0.0 | 0.0 | 0.00 | 0.00 | 0.00 | 48 | 1014.3 |
| 20260505011523 | 65 | 134 | 0.0 | 0.9 | 0.00 | 0.00 | 0.00 | 45 | 1014.3 |
| 20260505010026 | 66 | 167 | 0.0 | 2.6 | 0.00 | 0.00 | 0.00 | 45 | 1014.1 |
| 20260505004542 | 65 | 157 | 0.9 | 3.5 | 0.00 | 0.00 | 0.00 | 50 | 1013.9 |
| 20260505003023 | 66 | 132 | 1.7 | 3.5 | 0.00 | 0.00 | 0.00 | 47 | 1013.7 |
| 20260505001522 | 67 | 171 | 0.9 | 2.6 | 0.00 | 0.00 | 0.00 | 45 | 1013.5 |
| 20260505000035 | 69 | 159 | 0.9 | 1.7 | 0.00 | 0.00 | 0.00 | 41 | 1013.6 |
| 20260504233014 | 72 | 152 | 0.0 | 1.7 | 0.00 | 0.00 | 0.00 | 37 | 1013.5 |
| 20260504231531 | 73 | 158 | 1.7 | 5.2 | 0.00 | 0.00 | 0.00 | 36 | 1013.3 |
| 20260504230026 | 73 | 163 | 0.9 | 6.1 | 0.00 | 0.00 | 0.00 | 34 | 1013.3 |
| 20260504224526 | 74 | 157 | 1.7 | 6.1 | 0.00 | 0.00 | 0.00 | 34 | 1013.2 |
| 20260504223020 | 74 | 223 | 3.5 | 7.0 | 0.00 | 0.00 | 0.00 | 34 | 1013.3 |
| 20260504221523 | 75 | 138 | 4.3 | 9.6 | 0.00 | 0.00 | 0.00 | 34 | 1013.3 |
| 20260504220020 | 75 | 128 | 0.9 | 7.8 | 0.00 | 0.00 | 0.00 | 35 | 1013.2 |
| 20260504214514 | 75 | 176 | 2.6 | 9.6 | 0.00 | 0.00 | 0.00 | 34 | 1013.3 |
| 20260504213028 | 75 | 126 | 1.7 | 10.4 | 0.00 | 0.00 | 0.00 | 34 | 1013.2 |
| 20260504211510 | 75 | 144 | 4.3 | 8.7 | 0.00 | 0.00 | 0.00 | 34 | 1013.2 |
| 20260504210007 | 76 | 153 | 0.9 | 8.7 | 0.00 | 0.00 | 0.00 | 33 | 1013.3 |
| 20260504204505 | 76 | 117 | 2.6 | 7.8 | 0.00 | 0.00 | 0.00 | 33 | 1013.5 |
| 20260504203007 | 76 | 130 | 0.9 | 8.7 | 0.00 | 0.00 | 0.00 | 36 | 1013.5 |
| 20260504201518 | 76 | 159 | 2.6 | 12.2 | 0.00 | 0.00 | 0.00 | 33 | 1013.8 |
| 20260504200019 | 76 | 150 | 1.7 | 9.6 | 0.00 | 0.00 | 0.00 | 34 | 1014.0 |
| 20260504194514 | 76 | 169 | 1.7 | 6.1 | 0.00 | 0.00 | 0.00 | 36 | 1014.1 |
| 20260504193013 | 76 | 277 | 3.5 | 8.7 | 0.00 | 0.00 | 0.00 | 36 | 1014.3 |
| 20260504191510 | 76 | 131 | 0.9 | 8.7 | 0.00 | 0.00 | 0.00 | 36 | 1014.5 |
| 20260504190007 | 76 | 136 | 0.9 | 6.1 | 0.00 | 0.00 | 0.00 | 35 | 1014.6 |
| 20260504184505 | 76 | 238 | 1.7 | 4.3 | 0.00 | 0.00 | 0.00 | 34 | 1014.7 |
| 20260504183022 | 75 | 111 | 1.7 | 7.0 | 0.00 | 0.00 | 0.00 | 37 | 1015.0 |
| 20260504181522 | 75 | 100 | 0.0 | 5.2 | 0.00 | 0.00 | 0.00 | 37 | 1015.2 |
| 20260504180015 | 74 | 126 | 3.5 | 8.7 | 0.00 | 0.00 | 0.00 | 35 | 1015.3 |
| 20260504174539 | 74 | 148 | 1.7 | 8.7 | 0.00 | 0.00 | 0.00 | 35 | 1015.3 |
| 20260504173010 | 74 | 112 | 1.7 | 5.2 | 0.00 | 0.00 | 0.00 | 35 | 1015.3 |
| 20260504171510 | 74 | 134 | 1.7 | 7.0 | 0.00 | 0.00 | 0.00 | 34 | 1015.6 |
| 20260504081515 | 40 | 157 | 0.0 | 0.0 | 0.00 | 0.00 | 0.00 | 92 | 1016.4 |
| 20260504050018 | 43 | 157 | 0.0 | 0.0 | 0.00 | 0.00 | 0.00 | 89 | 1016.8 |
| 20260504044532 | 43 | 157 | 0.0 | 0.0 | 0.00 | 0.00 | 0.00 | 87 | 1016.8 |
| 20260504043028 | 44 | 157 | 0.0 | 0.0 | 0.00 | 0.00 | 0.00 | 86 | 1016.5 |
| 20260504041528 | 44 | 157 | 0.0 | 0.0 | 0.00 | 0.00 | 0.00 | 87 | 1016.5 |
| 20260504040025 | 45 | 157 | 0.0 | 0.0 | 0.00 | 0.00 | 0.00 | 84 | 1016.7 |
| 20260504034526 | 45 | 157 | 0.0 | 0.0 | 0.00 | 0.00 | 0.00 | 85 | 1016.6 |
| 20260504033021 | 46 | 157 | 0.0 | 0.0 | 0.00 | 0.00 | 0.00 | 83 | 1016.9 |
| 20260504031523 | 47 | 157 | 0.0 | 0.0 | 0.00 | 0.00 | 0.00 | 83 | 1016.9 |
| 20260504030013 | 47 | 157 | 0.0 | 0.0 | 0.00 | 0.00 | 0.00 | 79 | 1016.8 |
| 20260504024511 | 48 | 157 | 0.0 | 0.0 | 0.00 | 0.00 | 0.00 | 78 | 1016.8 |
| 20260504023026 | 48 | 157 | 0.0 | 0.0 | 0.00 | 0.00 | 0.00 | 77 | 1016.7 |